#Datum;Uhrzeit;WR;Pac;DaySum;Status;WR;Pac;DaySum;Status;Pdc1;Udc;Temp;WR;Pac;DaySum;Status;Pdc1;Udc;Temp;WR;Pac;DaySum;Status;Pdc1;Udc;Temp;WR;Pac;DaySum;Status;Pdc1;Pdc2;Udc1;Udc2;Temp;WR;Pac;DaySum;Status;Pdc1;Pdc2;Udc1;Udc2;Temp;WR;Pac;DaySum;Status;Pdc1;Udc;Temp;WR;Pac;DaySum;Status;Pdc1;Udc;Temp;WR;Pac;DaySum;Status;Pdc1;Udc;Temp
24.01.19;23:55:00;1;405;12925;0;2;0;716;0;0;0;0;3;0;337;0;0;0;0;4;0;458;0;0;0;0;5;0;1860;0;0;0;0;0;0;6;0;1180;0;0;0;0;0;0;7;0;626;0;0;0;0;8;0;618;0;0;0;0;9;0;230;0;0;0;0
24.01.19;23:50:00;1;268;12882;0;2;0;716;0;0;0;0;3;0;337;0;0;0;0;4;0;458;0;0;0;0;5;0;1860;0;0;0;0;0;0;6;0;1180;0;0;0;0;0;0;7;0;626;0;0;0;0;8;0;618;0;0;0;0;9;0;230;0;0;0;0
24.01.19;23:45:00;1;603;12842;0;2;0;716;0;0;0;0;3;0;337;0;0;0;0;4;0;458;0;0;0;0;5;0;1860;0;0;0;0;0;0;6;0;1180;0;0;0;0;0;0;7;0;626;0;0;0;0;8;0;618;0;0;0;0;9;0;230;0;0;0;0
24.01.19;23:40:00;1;583;12819;0;2;0;716;0;0;0;0;3;0;337;0;0;0;0;4;0;458;0;0;0;0;5;0;1860;0;0;0;0;0;0;6;0;1180;0;0;0;0;0;0;7;0;626;0;0;0;0;8;0;618;0;0;0;0;9;0;230;0;0;0;0
24.01.19;23:35:00;1;302;12772;0;2;0;716;0;0;0;0;3;0;337;0;0;0;0;4;0;458;0;0;0;0;5;0;1860;0;0;0;0;0;0;6;0;1180;0;0;0;0;0;0;7;0;626;0;0;0;0;8;0;618;0;0;0;0;9;0;230;0;0;0;0
24.01.19;23:30:00;1;751;12747;0;2;0;716;0;0;0;0;3;0;337;0;0;0;0;4;0;458;0;0;0;0;5;0;1860;0;0;0;0;0;0;6;0;1180;0;0;0;0;0;0;7;0;626;0;0;0;0;8;0;618;0;0;0;0;9;0;230;0;0;0;0
24.01.19;23:25:00;1;622;12694;0;2;0;716;0;0;0;0;3;0;337;0;0;0;0;4;0;458;0;0;0;0;5;0;1860;0;0;0;0;0;0;6;0;1180;0;0;0;0;0;0;7;0;626;0;0;0;0;8;0;618;0;0;0;0;9;0;230;0;0;0;0
24.01.19;23:20:00;1;457;12636;0;2;0;716;0;0;0;0;3;0;337;0;0;0;0;4;0;458;0;0;0;0;5;0;1860;0;0;0;0;0;0;6;0;1180;0;0;0;0;0;0;7;0;626;0;0;0;0;8;0;618;0;0;0;0;9;0;230;0;0;0;0
24.01.19;23:15:00;1;871;12597;0;2;0;716;0;0;0;0;3;0;337;0;0;0;0;4;0;458;0;0;0;0;5;0;1860;0;0;0;0;0;0;6;0;1180;0;0;0;0;0;0;7;0;626;0;0;0;0;8;0;618;0;0;0;0;9;0;230;0;0;0;0
24.01.19;23:10:00;1;461;12537;0;2;0;716;0;0;0;0;3;0;337;0;0;0;0;4;0;458;0;0;0;0;5;0;1860;0;0;0;0;0;0;6;0;1180;0;0;0;0;0;0;7;0;626;0;0;0;0;8;0;618;0;0;0;0;9;0;230;0;0;0;0
24.01.19;23:05:00;1;542;12498;0;2;0;716;0;0;0;0;3;0;337;0;0;0;0;4;0;458;0;0;0;0;5;0;1860;0;0;0;0;0;0;6;0;1180;0;0;0;0;0;0;7;0;626;0;0;0;0;8;0;618;0;0;0;0;9;0;230;0;0;0;0
24.01.19;23:00:00;1;577;12437;0;2;0;716;0;0;0;0;3;0;337;0;0;0;0;4;0;458;0;0;0;0;5;0;1860;0;0;0;0;0;0;6;0;1180;0;0;0;0;0;0;7;0;626;0;0;0;0;8;0;618;0;0;0;0;9;0;230;0;0;0;0
24.01.19;22:55:00;1;465;12375;0;2;0;716;0;0;0;0;3;0;337;0;0;0;0;4;0;458;0;0;0;0;5;0;1860;2;0;0;0;0;0;6;0;1180;2;0;0;0;0;0;7;0;626;0;0;0;0;8;0;618;0;0;0;0;9;0;230;0;0;0;0
24.01.19;22:50:00;1;882;12336;0;2;0;716;0;0;0;0;3;0;337;0;0;0;0;4;0;458;0;0;0;0;5;0;1860;2;0;0;0;0;0;6;0;1180;2;0;0;0;0;0;7;0;626;0;0;0;0;8;0;618;0;0;0;0;9;0;230;0;0;0;0
24.01.19;22:45:00;1;560;12275;0;2;0;716;0;0;0;0;3;0;337;0;0;0;0;4;0;458;0;0;0;0;5;0;1860;2;0;0;0;0;0;6;0;1180;2;0;0;0;0;0;7;0;626;0;0;0;0;8;0;618;0;0;0;0;9;0;230;0;0;0;0
24.01.19;22:40:00;1;422;12215;0;2;0;716;0;0;0;0;3;0;337;0;0;0;0;4;0;458;0;0;0;0;5;0;1860;2;0;0;0;0;0;6;0;1180;2;0;0;0;0;0;7;0;626;0;0;0;0;8;0;618;0;0;0;0;9;0;230;0;0;0;0
24.01.19;22:35:00;1;787;12179;0;2;0;716;0;0;0;0;3;0;337;0;0;0;0;4;0;458;0;0;0;0;5;0;1860;2;0;0;0;0;0;6;0;1180;2;0;0;0;0;0;7;0;626;0;0;0;0;8;0;618;0;0;0;0;9;0;230;0;0;0;0
24.01.19;22:30:00;1;436;12121;0;2;0;716;0;0;0;0;3;0;337;0;0;0;0;4;0;458;0;0;0;0;5;0;1860;2;0;0;0;0;0;6;0;1180;2;0;0;0;0;0;7;0;626;0;0;0;0;8;0;618;0;0;0;0;9;0;230;0;0;0;0
24.01.19;22:25:00;1;643;12084;0;2;0;716;0;0;0;0;3;0;337;0;0;0;0;4;0;458;0;0;0;0;5;0;1860;2;0;0;0;0;0;6;0;1180;2;0;0;0;0;0;7;0;626;0;0;0;0;8;0;618;0;0;0;0;9;0;230;0;0;0;0
24.01.19;22:20:00;1;659;12023;0;2;0;716;0;0;0;0;3;0;337;0;0;0;0;4;0;458;0;0;0;0;5;0;1860;2;0;0;0;0;0;6;0;1180;2;0;0;0;0;0;7;0;626;0;0;0;0;8;0;618;0;0;0;0;9;0;230;0;0;0;0
24.01.19;22:15:00;1;421;11961;0;2;0;716;0;0;0;0;3;0;337;0;0;0;0;4;0;458;0;0;0;0;5;0;1860;2;0;0;0;0;0;6;0;1180;2;0;0;0;0;0;7;0;626;0;0;0;0;8;0;618;0;0;0;0;9;0;230;0;0;0;0
24.01.19;22:10:00;1;1021;11926;0;2;0;716;0;0;0;0;3;0;337;0;0;0;0;4;0;458;0;0;0;0;5;0;1860;2;0;0;0;0;0;6;0;1180;2;0;0;0;0;0;7;0;626;0;0;0;0;8;0;618;0;0;0;0;9;0;230;0;0;0;0
24.01.19;22:05:00;1;411;11866;0;2;0;716;0;0;0;0;3;0;337;0;0;0;0;4;0;458;0;0;0;0;5;0;1860;2;0;0;0;0;0;6;0;1180;2;0;0;0;0;0;7;0;626;0;0;0;0;8;0;618;0;0;0;0;9;0;230;0;0;0;0
24.01.19;22:00:00;1;820;11832;0;2;0;716;0;0;0;0;3;0;337;0;0;0;0;4;0;458;0;0;0;0;5;0;1860;2;0;0;0;0;0;6;0;1180;2;0;0;0;0;0;7;0;626;0;0;0;0;8;0;618;0;0;0;0;9;0;230;0;0;0;0
24.01.19;21:55:00;1;588;11774;0;2;0;716;0;0;0;0;3;0;337;0;0;0;0;4;0;458;0;0;0;0;5;0;1860;2;0;0;0;0;0;6;0;1180;2;0;0;0;0;0;7;0;626;0;0;0;0;8;0;618;0;0;0;0;9;0;230;0;0;0;0
24.01.19;21:50:00;1;411;11716;0;2;0;716;0;0;0;0;3;0;337;0;0;0;0;4;0;458;0;0;0;0;5;0;1860;2;0;0;0;0;0;6;0;1180;2;0;0;0;0;0;7;0;626;0;0;0;0;8;0;618;0;0;0;0;9;0;230;0;0;0;0
24.01.19;21:45:00;1;771;11681;0;2;0;716;0;0;0;0;3;0;337;0;0;0;0;4;0;458;0;0;0;0;5;0;1860;2;0;0;0;0;0;6;0;1180;2;0;0;0;0;0;7;0;626;0;0;0;0;8;0;618;0;0;0;0;9;0;230;0;0;0;0
24.01.19;21:40:00;1;1162;11622;0;2;0;716;0;0;0;0;3;0;337;0;0;0;0;4;0;458;0;0;0;0;5;0;1860;2;0;0;0;0;0;6;0;1180;2;0;0;0;0;0;7;0;626;0;0;0;0;8;0;618;0;0;0;0;9;0;230;0;0;0;0
24.01.19;21:35:00;1;802;11531;0;2;0;716;0;0;0;0;3;0;337;0;0;0;0;4;0;458;0;0;0;0;5;0;1860;2;0;0;0;0;0;6;0;1180;2;0;0;0;0;0;7;0;626;0;0;0;0;8;0;618;0;0;0;0;9;0;230;0;0;0;0
24.01.19;21:30:00;1;654;11476;0;2;0;716;0;0;0;0;3;0;337;0;0;0;0;4;0;458;0;0;0;0;5;0;1860;2;0;0;0;0;0;6;0;1180;2;0;0;0;0;0;7;0;626;0;0;0;0;8;0;618;0;0;0;0;9;0;230;0;0;0;0
24.01.19;21:25:00;1;451;11414;0;2;0;716;0;0;0;0;3;0;337;0;0;0;0;4;0;458;0;0;0;0;5;0;1860;2;0;0;0;0;0;6;0;1180;2;0;0;0;0;0;7;0;626;0;0;0;0;8;0;618;0;0;0;0;9;0;230;0;0;0;0
24.01.19;21:20:00;1;871;11376;0;2;0;716;0;0;0;0;3;0;337;0;0;0;0;4;0;458;0;0;0;0;5;0;1860;2;0;0;0;0;0;6;0;1180;2;0;0;0;0;0;7;0;626;0;0;0;0;8;0;618;0;0;0;0;9;0;230;0;0;0;0
24.01.19;21:15:00;1;436;11313;0;2;0;716;0;0;0;0;3;0;337;0;0;0;0;4;0;458;0;0;0;0;5;0;1860;2;0;0;0;0;0;6;0;1180;2;0;0;0;0;0;7;0;626;0;0;0;0;8;0;618;0;0;0;0;9;0;230;0;0;0;0
24.01.19;21:10:00;1;859;11268;0;2;0;716;0;0;0;0;3;0;337;0;0;0;0;4;0;458;0;0;0;0;5;0;1860;2;0;0;0;0;0;6;0;1180;2;0;0;0;0;0;7;0;626;0;0;0;0;8;0;618;0;0;0;0;9;0;230;0;0;0;0
24.01.19;21:05:00;1;930;11213;0;2;0;716;0;0;0;0;3;0;337;0;0;0;0;4;0;458;0;0;0;0;5;0;1860;2;0;0;0;0;0;6;0;1180;2;0;0;0;0;0;7;0;626;0;0;0;0;8;0;618;0;0;0;0;9;0;230;0;0;0;0
24.01.19;21:00:00;1;494;11146;0;2;0;716;0;0;0;0;3;0;337;0;0;0;0;4;0;458;0;0;0;0;5;0;1860;2;0;0;0;0;0;6;0;1180;2;0;0;0;0;0;7;0;626;0;0;0;0;8;0;618;0;0;0;0;9;0;230;0;0;0;0
24.01.19;20:55:00;1;695;11104;0;2;0;716;0;0;0;0;3;0;337;0;0;0;0;4;0;458;0;0;0;0;5;0;1860;2;0;0;0;0;0;6;0;1180;2;0;0;0;0;0;7;0;626;0;0;0;0;8;0;618;0;0;0;0;9;0;230;0;0;0;0
24.01.19;20:50:00;1;704;11040;0;2;0;716;0;0;0;0;3;0;337;0;0;0;0;4;0;458;0;0;0;0;5;0;1860;2;0;0;0;0;0;6;0;1180;2;0;0;0;0;0;7;0;626;0;0;0;0;8;0;618;0;0;0;0;9;0;230;0;0;0;0
24.01.19;20:45:00;1;490;10975;0;2;0;716;0;0;0;0;3;0;337;0;0;0;0;4;0;458;0;0;0;0;5;0;1860;2;0;0;0;0;0;6;0;1180;2;0;0;0;0;0;7;0;626;0;0;0;0;8;0;618;0;0;0;0;9;0;230;0;0;0;0
24.01.19;20:40:00;1;1003;10934;0;2;0;716;0;0;0;0;3;0;337;0;0;0;0;4;0;458;0;0;0;0;5;0;1860;2;0;0;0;0;0;6;0;1180;2;0;0;0;0;0;7;0;626;0;0;0;0;8;0;618;0;0;0;0;9;0;230;0;0;0;0
24.01.19;20:35:00;1;537;10869;0;2;0;716;0;0;0;0;3;0;337;0;0;0;0;4;0;458;0;0;0;0;5;0;1860;2;0;0;0;0;0;6;0;1180;2;0;0;0;0;0;7;0;626;0;0;0;0;8;0;618;0;0;0;0;9;0;230;0;0;0;0
24.01.19;20:30:00;1;674;10807;0;2;0;716;0;0;0;0;3;0;337;0;0;0;0;4;0;458;0;0;0;0;5;0;1860;2;0;0;0;0;0;6;0;1180;2;0;0;0;0;0;7;0;626;0;0;0;0;8;0;618;0;0;0;0;9;0;230;0;0;0;0
24.01.19;20:25:00;1;825;10767;0;2;0;716;0;0;0;0;3;0;337;0;0;0;0;4;0;458;0;0;0;0;5;0;1860;2;0;0;0;0;0;6;0;1180;2;0;0;0;0;0;7;0;626;0;0;0;0;8;0;618;0;0;0;0;9;0;230;0;0;0;0
24.01.19;20:20:00;1;468;10704;0;2;0;716;0;0;0;0;3;0;337;0;0;0;0;4;0;458;0;0;0;0;5;0;1860;2;0;0;0;0;0;6;0;1180;2;0;0;0;0;0;7;0;626;0;0;0;0;8;0;618;0;0;0;0;9;0;230;0;0;0;0
24.01.19;20:15:00;1;679;10664;0;2;0;716;0;0;0;0;3;0;337;0;0;0;0;4;0;458;0;0;0;0;5;0;1860;2;0;0;0;0;0;6;0;1180;2;0;0;0;0;0;7;0;626;0;0;0;0;8;0;618;0;0;0;0;9;0;230;0;0;0;0
24.01.19;20:10:00;1;585;10615;0;2;0;716;0;0;0;0;3;0;337;0;0;0;0;4;0;458;0;0;0;0;5;0;1860;2;0;0;0;0;0;6;0;1180;2;0;0;0;0;0;7;0;626;0;0;0;0;8;0;618;0;0;0;0;9;0;230;0;0;0;0
24.01.19;20:05:00;1;349;10563;0;2;0;716;0;0;0;0;3;0;337;0;0;0;0;4;0;458;0;0;0;0;5;0;1860;2;0;0;0;0;0;6;0;1180;2;0;0;0;0;0;7;0;626;0;0;0;0;8;0;618;0;0;0;0;9;0;230;0;0;0;0
24.01.19;20:00:00;1;740;10534;0;2;0;716;0;0;0;0;3;0;337;0;0;0;0;4;0;458;0;0;0;0;5;0;1860;2;0;0;0;0;0;6;0;1180;2;0;0;0;0;0;7;0;626;0;0;0;0;8;0;618;0;0;0;0;9;0;230;0;0;0;0
24.01.19;19:55:00;1;613;10483;0;2;0;716;0;0;0;0;3;0;337;0;0;0;0;4;0;458;0;0;0;0;5;0;1860;2;0;0;0;0;0;6;0;1180;2;0;0;0;0;0;7;0;626;0;0;0;0;8;0;618;0;0;0;0;9;0;230;0;0;0;0
24.01.19;19:50:00;1;620;10419;0;2;0;716;0;0;0;0;3;0;337;0;0;0;0;4;0;458;0;0;0;0;5;0;1860;2;0;0;0;0;0;6;0;1180;2;0;0;0;0;0;7;0;626;0;0;0;0;8;0;618;0;0;0;0;9;0;230;0;0;0;0
24.01.19;19:45:00;1;1013;10367;0;2;0;716;0;0;0;0;3;0;337;0;0;0;0;4;0;458;0;0;0;0;5;0;1860;2;0;0;0;0;0;6;0;1180;2;0;0;0;0;0;7;0;626;0;0;0;0;8;0;618;0;0;0;0;9;0;230;0;0;0;0
24.01.19;19:40:00;1;703;10289;0;2;0;716;0;0;0;0;3;0;337;0;0;0;0;4;0;458;0;0;0;0;5;0;1860;2;0;0;0;0;0;6;0;1180;2;0;0;0;0;0;7;0;626;0;0;0;0;8;0;618;0;0;0;0;9;0;230;0;0;0;0
24.01.19;19:35:00;1;1059;10212;0;2;0;716;0;0;0;0;3;0;337;0;0;0;0;4;0;458;0;0;0;0;5;0;1860;2;0;0;0;0;0;6;0;1180;2;0;0;0;0;0;7;0;626;0;0;0;0;8;0;618;0;0;0;0;9;0;230;0;0;0;0
24.01.19;19:30:00;1;968;10147;0;2;0;716;0;0;0;0;3;0;337;0;0;0;0;4;0;458;0;0;0;0;5;0;1860;2;0;0;0;0;0;6;0;1180;2;0;0;0;0;0;7;0;626;0;0;0;0;8;0;618;0;0;0;0;9;0;230;0;0;0;0
24.01.19;19:25:00;1;773;10059;0;2;0;716;0;0;0;0;3;0;337;0;0;0;0;4;0;458;0;0;0;0;5;0;1860;2;0;0;0;0;0;6;0;1180;2;0;0;0;0;0;7;0;626;0;0;0;0;8;0;618;0;0;0;0;9;0;230;0;0;0;0
24.01.19;19:20:00;1;1230;9979;0;2;0;716;0;0;0;0;3;0;337;0;0;0;0;4;0;458;0;0;0;0;5;0;1860;2;0;0;0;0;0;6;0;1180;2;0;0;0;0;0;7;0;626;0;0;0;0;8;0;618;0;0;0;0;9;0;230;0;0;0;0
24.01.19;19:15:00;1;758;9912;0;2;0;716;0;0;0;0;3;0;337;0;0;0;0;4;0;458;0;0;0;0;5;0;1860;2;0;0;0;0;0;6;0;1180;2;0;0;0;0;0;7;0;626;0;0;0;0;8;0;618;0;0;0;0;9;0;230;0;0;0;0
24.01.19;19:10:00;1;506;9863;0;2;0;716;0;0;0;0;3;0;337;0;0;0;0;4;0;458;0;0;0;0;5;0;1860;2;0;0;0;0;0;6;0;1180;2;0;0;0;0;0;7;0;626;0;0;0;0;8;0;618;0;0;0;0;9;0;230;0;0;0;0
24.01.19;19:05:00;1;506;9816;0;2;0;716;0;0;0;0;3;0;337;0;0;0;0;4;0;458;0;0;0;0;5;0;1860;2;0;0;0;0;0;6;0;1180;2;0;0;0;0;0;7;0;626;0;0;0;0;8;0;618;0;0;0;0;9;0;230;0;0;0;0
24.01.19;19:00:00;1;297;9770;0;2;0;716;0;0;0;0;3;0;337;0;0;0;0;4;0;458;0;0;0;0;5;0;1860;2;0;0;0;0;0;6;0;1180;2;0;0;0;0;0;7;0;626;0;0;0;0;8;0;618;0;0;0;0;9;0;230;0;0;0;0
24.01.19;18:55:00;1;723;9729;0;2;0;716;0;0;0;0;3;0;337;0;0;0;0;4;0;458;0;0;0;0;5;0;1860;2;0;0;0;0;0;6;0;1180;2;0;0;0;0;0;7;0;626;0;0;0;0;8;0;618;0;0;0;0;9;0;230;0;0;0;0
24.01.19;18:50:00;1;414;9695;0;2;0;716;0;0;0;0;3;0;337;0;0;0;0;4;0;458;0;0;0;0;5;0;1860;2;0;0;0;0;0;6;0;1180;2;0;0;0;0;0;7;0;626;0;0;0;0;8;0;618;0;0;0;0;9;0;230;0;0;0;0
24.01.19;18:45:00;1;717;9645;0;2;0;716;0;0;0;0;3;0;337;0;0;0;0;4;0;458;0;0;0;0;5;0;1860;2;0;0;0;0;0;6;0;1180;2;0;0;0;0;0;7;0;626;0;0;0;0;8;0;618;0;0;0;0;9;0;230;0;0;0;0
24.01.19;18:40:00;1;425;9593;0;2;0;716;0;0;0;0;3;0;337;0;0;0;0;4;0;458;0;0;0;0;5;0;1860;2;0;0;0;0;0;6;0;1180;2;0;0;0;0;0;7;0;626;0;0;0;0;8;0;618;0;0;0;0;9;0;230;0;0;0;0
24.01.19;18:35:00;1;784;9542;0;2;0;716;0;0;0;0;3;0;337;0;0;0;0;4;0;458;0;0;0;0;5;0;1860;2;0;0;0;0;0;6;0;1180;2;0;0;0;0;0;7;0;626;0;0;0;0;8;0;618;0;0;0;0;9;0;230;0;0;0;0
24.01.19;18:30:00;1;413;9490;0;2;0;716;0;0;0;0;3;0;337;0;0;0;0;4;0;458;0;0;0;0;5;0;1860;2;0;0;0;0;0;6;0;1180;2;0;0;0;0;0;7;0;626;0;0;0;0;8;0;618;0;0;0;0;9;0;230;0;0;0;0
24.01.19;18:25:00;1;1926;9437;0;2;0;716;0;0;0;0;3;0;337;0;0;0;0;4;0;458;0;0;0;0;5;0;1860;2;0;0;0;0;0;6;0;1180;2;0;0;0;0;0;7;0;626;0;0;0;0;8;0;618;0;0;0;0;9;0;230;0;0;0;0
24.01.19;18:20:00;1;601;9319;0;2;0;716;0;0;0;0;3;0;337;0;0;0;0;4;0;458;0;0;0;0;5;0;1860;2;0;0;0;0;0;6;0;1180;2;0;0;0;0;0;7;0;626;0;0;0;0;8;0;618;0;0;0;0;9;0;230;0;0;0;0
24.01.19;18:15:00;1;525;9266;0;2;0;716;0;0;0;0;3;0;337;0;0;0;0;4;0;458;0;0;0;0;5;0;1860;2;0;0;0;0;0;6;0;1180;2;0;0;0;0;0;7;0;626;0;0;0;0;8;0;618;0;0;0;0;9;0;230;0;0;0;0
24.01.19;18:10:00;1;318;9216;0;2;0;716;0;0;0;0;3;0;337;0;0;0;0;4;0;458;0;0;0;0;5;0;1860;2;0;0;0;0;0;6;0;1180;2;0;0;0;0;0;7;0;626;0;0;0;0;8;0;618;0;0;0;0;9;0;230;0;0;0;0
24.01.19;18:05:00;1;734;9168;0;2;0;716;0;0;0;0;3;0;337;0;0;0;0;4;0;458;0;0;0;0;5;0;1860;2;0;0;0;0;0;6;0;1180;2;0;0;0;0;0;7;0;626;0;0;0;0;8;0;618;0;0;0;0;9;0;230;0;0;0;0
24.01.19;18:00:00;1;555;9122;0;2;0;716;0;0;0;0;3;0;337;0;0;0;0;4;0;458;0;0;0;0;5;0;1860;2;0;0;0;0;0;6;0;1180;2;0;0;0;0;0;7;0;626;0;0;0;0;8;0;618;0;0;0;0;9;0;230;0;0;0;0
24.01.19;17:55:00;1;489;9074;0;2;0;716;0;0;0;0;3;0;337;0;0;0;0;4;0;458;0;0;0;0;5;0;1860;2;0;0;0;0;0;6;0;1180;2;0;0;0;0;0;7;0;626;0;0;0;0;8;0;618;0;0;0;0;9;0;230;0;0;0;0
24.01.19;17:50:00;1;321;9025;0;2;0;716;0;0;0;0;3;0;337;0;0;0;0;4;0;458;0;0;0;0;5;0;1860;2;0;0;0;0;0;6;0;1180;2;0;0;0;0;0;7;0;626;0;0;0;0;8;0;618;0;0;0;0;9;0;230;0;0;0;0
24.01.19;17:45:00;1;776;8985;0;2;0;716;0;0;0;0;3;0;337;0;0;0;0;4;0;458;0;0;0;0;5;0;1860;2;0;0;0;0;0;6;0;1180;2;0;0;0;0;0;7;0;626;0;0;0;0;8;0;618;0;0;0;0;9;0;230;0;0;0;0
24.01.19;17:40:00;1;891;8939;0;2;0;716;0;0;0;0;3;0;337;0;0;0;0;4;0;458;0;0;0;0;5;0;1860;2;0;0;0;0;0;6;0;1180;2;0;0;0;0;0;7;0;626;0;0;0;0;8;0;618;0;0;0;0;9;0;230;0;0;0;0
24.01.19;17:35:00;1;515;8876;0;2;0;716;0;0;0;0;3;0;337;0;0;0;0;4;0;458;0;0;0;0;5;0;1860;2;0;0;0;0;0;6;0;1180;2;0;0;0;0;0;7;0;626;0;0;0;0;8;0;618;0;0;0;0;9;0;230;0;0;0;0
24.01.19;17:30:00;1;727;8827;0;2;0;716;0;0;0;0;3;0;337;0;0;0;0;4;0;458;0;0;0;0;5;0;1860;2;0;0;0;0;0;6;0;1180;2;0;0;0;0;0;7;0;626;0;0;0;0;8;0;618;0;0;0;0;9;0;230;0;0;0;0
24.01.19;17:25:00;1;675;8780;0;2;0;716;0;0;0;0;3;0;337;0;0;0;0;4;0;458;0;0;0;0;5;0;1860;2;0;0;0;0;0;6;0;1180;2;0;0;0;0;0;7;0;626;0;0;0;0;8;0;618;0;0;0;0;9;0;230;0;0;0;0
24.01.19;17:20:00;1;684;8730;0;2;0;716;0;0;0;0;3;0;337;0;0;0;0;4;0;458;0;0;0;0;5;0;1860;2;0;0;0;0;0;6;0;1180;2;0;0;0;0;0;7;0;626;0;0;0;0;8;0;618;0;0;0;0;9;0;230;0;0;0;0
24.01.19;17:15:00;1;785;8686;0;2;0;716;0;0;0;0;3;0;337;0;0;0;0;4;0;458;0;0;0;0;5;0;1860;2;0;0;0;0;0;6;0;1180;2;0;0;0;0;0;7;0;626;0;0;0;0;8;0;618;0;0;0;0;9;0;230;0;0;0;0
24.01.19;17:10:00;1;1081;8626;0;2;0;716;0;0;0;0;3;0;337;0;0;0;0;4;0;458;0;0;0;0;5;0;1860;2;0;0;0;0;0;6;0;1180;2;0;0;0;0;0;7;0;626;0;0;0;0;8;0;618;0;0;0;0;9;0;230;0;0;0;0
24.01.19;17:05:00;1;1095;8557;0;2;0;716;0;0;72;1;3;0;337;0;0;228;7;4;0;458;0;0;0;0;5;0;1860;2;0;0;0;0;0;6;0;1180;2;0;0;0;0;0;7;0;626;0;0;0;0;8;0;618;0;0;0;0;9;0;230;0;0;0;0
24.01.19;17:00:00;1;756;8481;0;2;0;716;6;0;277;5;3;0;337;6;0;298;9;4;0;458;0;0;0;0;5;0;1860;2;0;0;0;0;0;6;0;1180;0;0;0;0;0;0;7;0;626;0;0;0;0;8;0;618;0;0;0;0;9;0;230;0;0;0;0
24.01.19;16:55:00;1;701;8436;0;2;0;716;6;0;311;5;3;0;337;6;0;360;9;4;0;458;0;0;65;1;5;0;1860;2;100;97;7;6;2;6;0;1180;2;0;0;0;0;1;7;0;626;0;0;0;0;8;0;618;0;0;0;0;9;0;230;0;0;0;0
24.01.19;16:50:00;1;720;8375;0;2;0;716;6;0;337;5;3;0;337;6;0;397;9;4;0;458;1;0;96;3;5;0;1860;2;0;1;170;169;7;6;0;1180;1;2;2;89;158;9;7;0;626;0;0;0;0;8;0;618;0;0;0;0;9;0;230;0;0;0;0
24.01.19;16:45:00;1;739;8316;0;2;0;716;6;0;358;5;3;0;337;6;0;425;9;4;0;458;1;0;119;3;5;0;1860;23;0;0;374;388;15;6;0;1180;23;5;6;231;476;14;7;0;626;0;0;84;2;8;0;618;0;0;84;2;9;0;230;6;0;268;4
24.01.19;16:40:00;1;805;8256;0;2;0;716;6;0;374;5;3;0;337;6;2;441;9;4;0;458;1;0;142;3;5;0;1860;23;0;2;403;400;16;6;0;1180;23;4;5;181;534;14;7;0;626;6;0;287;7;8;0;618;6;0;287;7;9;0;230;6;0;308;4
24.01.19;16:35:00;1;610;8192;0;2;0;716;6;0;389;5;3;0;337;6;1;452;9;4;0;458;1;0;169;3;5;9;1860;1;0;1;411;616;16;6;0;1180;23;4;5;181;563;15;7;0;626;6;0;339;7;8;0;618;6;0;341;7;9;0;230;6;0;363;4
24.01.19;16:30:00;1;888;8143;0;2;0;716;6;0;403;5;3;0;337;6;2;483;9;4;0;458;1;0;199;3;5;10;1859;26;2;3;422;657;16;6;0;1180;23;4;5;231;585;15;7;0;626;6;0;392;8;8;0;618;6;0;395;7;9;0;230;6;0;422;5
24.01.19;16:25:00;1;554;8096;0;2;2;716;6;3;403;5;3;0;337;6;3;503;9;4;0;458;1;0;219;3;5;17;1859;26;4;16;425;667;16;6;0;1180;23;4;5;500;596;15;7;0;626;6;0;416;8;8;0;618;6;0;420;7;9;0;230;3;0;435;5
24.01.19;16:20:00;1;546;8052;0;2;0;716;6;5;405;5;3;2;337;4;3;501;9;4;0;458;1;0;227;4;5;13;1857;26;3;5;432;688;17;6;0;1180;1;4;6;520;600;16;7;0;626;6;0;429;8;8;0;618;6;0;431;7;9;0;230;6;0;466;5
24.01.19;16:15:00;1;513;8007;0;2;1;716;6;4;410;6;3;5;337;3;11;463;9;4;0;458;3;0;215;4;5;73;1856;4;20;22;385;611;18;6;0;1180;23;5;5;502;604;16;7;0;626;6;0;439;8;8;0;618;6;1;427;7;9;1;230;6;1;461;5
24.01.19;16:10:00;1;269;7962;0;2;1;716;6;5;412;6;3;0;336;6;5;513;9;4;0;458;3;0;216;4;5;78;1850;4;22;25;385;611;18;6;0;1180;8;7;3;447;608;17;7;1;626;3;4;426;8;8;0;618;6;0;475;7;9;2;230;6;0;497;5
24.01.19;16:05:00;1;508;7920;0;2;1;716;6;4;415;6;3;0;336;6;4;520;9;4;0;458;3;0;220;4;5;79;1843;4;24;24;385;611;18;6;8;1180;23;8;14;585;580;17;7;0;626;6;1;457;8;8;0;618;4;3;438;7;9;1;230;6;1;504;5
24.01.19;16:00:00;1;503;7891;0;2;0;716;6;0;431;6;3;3;336;6;11;489;9;4;0;458;3;0;228;4;5;88;1836;4;32;30;385;611;18;6;58;1179;4;14;21;466;443;18;7;0;626;6;2;464;8;8;2;618;6;3;466;8;9;2;230;6;2;515;5
24.01.19;15:55:00;1;478;7856;0;2;8;716;4;14;411;6;3;0;336;6;5;531;9;4;0;458;3;0;234;4;5;101;1829;4;39;40;385;611;18;6;69;1174;4;36;49;466;443;18;7;3;626;6;4;477;8;8;1;618;6;7;454;8;9;4;230;4;5;502;5
24.01.19;15:50:00;1;500;7817;0;2;4;715;6;9;419;6;3;2;336;4;6;522;9;4;0;458;3;0;221;5;5;109;1820;4;42;36;385;611;18;6;68;1168;4;16;23;466;442;18;7;1;626;6;5;476;8;8;2;617;6;4;476;8;9;2;229;3;3;525;5
24.01.19;15:45:00;1;645;7778;0;2;5;715;6;9;424;6;3;2;336;3;12;512;9;4;0;458;3;0;208;5;5;112;1811;4;48;41;385;611;18;6;74;1162;4;34;45;466;443;18;7;2;625;6;4;485;8;8;2;617;6;4;486;8;9;0;229;6;3;536;5
24.01.19;15:40:00;1;233;7740;0;2;7;714;6;11;424;6;3;2;335;6;8;531;9;4;1;458;3;1;199;5;5;128;1801;4;57;47;385;611;18;6;89;1156;4;35;43;466;442;18;7;0;625;3;7;476;9;8;0;617;6;0;514;8;9;1;229;6;4;537;5
24.01.19;15:35:00;1;419;7702;0;2;7;714;6;10;430;6;3;2;335;6;7;543;9;4;4;457;3;4;199;5;5;145;1790;4;61;49;385;611;18;6;91;1149;4;44;56;466;443;18;7;1;625;6;7;495;9;8;9;617;4;14;470;8;9;1;229;6;5;548;5
24.01.19;15:30:00;1;582;7662;0;2;38;713;6;57;372;7;3;3;335;6;10;536;9;4;7;457;3;8;199;5;5;152;1778;4;66;59;385;611;18;6;103;1141;4;44;58;466;443;18;7;6;625;6;10;496;9;8;14;616;3;20;471;8;9;1;229;6;6;548;5
24.01.19;15:25:00;1;785;7620;0;2;52;710;4;75;362;7;3;3;335;6;8;547;9;4;10;457;3;11;199;5;5;161;1765;4;70;68;385;611;18;6;100;1132;4;43;56;466;443;18;7;12;625;6;19;477;9;8;6;615;6;8;502;9;9;5;229;4;10;522;5
24.01.19;15:20:00;1;803;7574;0;2;60;706;4;83;374;7;3;0;334;6;0;574;10;4;12;456;3;13;199;5;5;175;1752;4;77;62;385;611;18;6;113;1124;4;53;65;466;443;18;7;35;624;6;49;388;9;8;24;614;6;34;428;9;9;7;228;3;14;523;5
24.01.19;15:15:00;1;451;7533;0;2;64;701;4;90;382;7;3;11;334;3;21;529;10;4;14;455;3;15;198;5;5;185;1737;4;85;68;385;611;18;6;120;1114;4;58;76;466;443;18;7;48;621;4;73;366;9;8;42;612;4;68;363;9;9;4;228;6;7;561;5
24.01.19;15:10:00;1;791;7494;0;2;75;696;4;96;379;7;3;13;333;6;26;515;10;4;28;453;3;29;198;5;5;199;1722;4;94;79;385;611;18;6;129;1104;4;59;75;466;443;18;7;49;617;4;82;419;9;8;49;609;4;75;362;9;9;10;227;6;18;527;5
24.01.19;15:05:00;1;425;7457;0;2;77;689;4;99;384;7;3;7;332;6;11;557;10;4;29;451;3;31;198;5;5;207;1705;4;101;86;385;611;17;6;135;1093;4;63;79;466;442;18;7;47;613;4;88;435;9;8;61;605;4;78;363;9;9;5;227;6;8;566;5
24.01.19;15:00:00;1;224;7416;0;2;86;683;4;110;382;7;3;8;332;6;14;554;10;4;39;448;3;41;198;5;5;222;1688;4;112;95;385;611;17;6;147;1082;4;50;63;466;442;18;7;68;609;4;95;418;9;8;69;600;4;94;410;9;9;7;226;6;10;565;5
24.01.19;14:55:00;1;476;7375;0;2;86;676;4;113;390;7;3;7;331;6;11;557;10;4;36;445;3;37;198;5;5;227;1669;4;116;96;385;611;17;6;149;1070;4;78;94;466;442;18;7;69;603;4;103;421;9;8;71;594;4;102;423;9;9;0;226;6;0;594;5
24.01.19;14:50:00;1;524;7337;0;2;89;668;4;114;371;7;3;0;331;6;0;584;10;4;47;442;3;48;198;5;5;227;1650;4;114;99;385;611;17;6;151;1057;4;70;84;467;443;18;7;69;598;4;104;418;9;8;66;588;4;100;423;9;9;14;226;3;22;533;5
24.01.19;14:45:00;1;452;7296;0;2;93;661;4;118;372;7;3;15;331;3;26;537;10;4;50;438;3;52;198;5;5;233;1631;4;119;101;385;611;17;6;154;1044;4;74;88;466;443;18;7;76;592;4;104;437;9;8;79;582;4;103;431;9;9;7;224;6;10;571;5
24.01.19;14:40:00;1;268;7257;0;2;104;653;4;126;371;7;3;10;329;6;17;557;10;4;53;434;3;55;198;5;5;252;1612;4;123;110;385;611;17;6;165;1032;4;79;90;466;443;18;7;89;585;4;114;437;9;8;83;576;4;113;417;9;9;9;224;6;28;534;5
24.01.19;14:35:00;1;478;7219;0;2;121;645;4;145;379;7;3;63;328;4;102;492;11;4;73;430;3;76;198;5;5;281;1591;4;135;120;385;611;17;6;182;1018;4;92;102;466;442;18;7;97;578;4;135;415;9;8;103;569;4;133;468;9;9;8;223;6;12;577;5
24.01.19;14:30:00;1;539;7183;0;2;126;635;4;155;379;7;3;67;323;4;105;514;11;4;76;424;3;79;199;5;5;299;1567;4;148;127;385;611;17;6;196;1002;4;107;120;466;443;18;7;114;570;4;149;458;9;8;101;560;4;143;486;9;9;12;222;6;17;576;5
24.01.19;14:25:00;1;736;7142;0;2;127;624;4;156;385;7;3;67;317;4;104;514;10;4;72;417;3;75;199;5;5;293;1542;4;147;125;385;611;17;6;193;986;4;102;113;466;443;18;7;106;561;4;147;444;9;8;101;552;4;135;488;9;9;0;221;6;0;606;5
24.01.19;14:20:00;1;399;7096;0;2;123;613;4;150;375;7;3;66;312;4;102;487;10;4;72;411;3;75;199;5;5;286;1518;4;139;124;385;611;17;6;186;970;4;79;86;466;443;18;7;113;552;4;143;424;9;8;104;544;4;142;475;9;9;23;221;3;31;538;5
24.01.19;14:15:00;1;748;7053;0;2;121;603;4;147;388;7;3;63;306;4;99;436;10;4;69;405;3;72;199;5;5;282;1494;4;138;122;385;611;17;6;187;954;4;87;97;466;443;18;7;112;542;4;140;420;9;8;103;535;4;138;458;9;9;9;219;6;12;579;5
24.01.19;14:10:00;1;609;7007;0;2;124;593;4;151;381;7;3;67;301;4;102;449;10;4;69;399;3;72;199;5;5;287;1470;4;140;125;385;611;17;6;185;938;4;85;97;466;443;17;7;115;533;4;151;447;9;8;107;526;4;143;427;9;9;11;218;6;16;575;5
24.01.19;14:05:00;1;767;6961;0;2;127;583;4;154;385;7;3;69;295;4;109;479;10;4;76;394;3;79;199;4;5;297;1446;4;149;125;385;611;17;6;193;923;4;116;127;466;442;17;7;119;523;4;151;449;9;8;116;517;4;147;452;9;9;10;217;6;14;579;5
24.01.19;14:00:00;1;559;6920;0;2;136;572;4;163;391;7;3;74;289;4;112;500;10;4;81;387;3;84;200;4;5;310;1422;4;156;132;385;611;17;6;201;906;4;84;91;466;443;17;7;129;513;4;158;466;9;8;120;508;4;156;465;9;9;13;217;6;17;577;5
24.01.19;13:55:00;1;750;6873;0;2;135;561;4;159;383;7;3;75;283;4;111;497;10;4;83;381;3;87;199;4;5;310;1396;4;154;130;385;611;17;6;200;889;4;106;111;466;443;17;7;124;503;4;155;465;9;8;113;498;4;147;486;9;9;11;216;6;14;582;5
24.01.19;13:50:00;1;567;6826;0;2;132;549;4;156;397;7;3;71;277;4;110;488;10;4;80;374;3;83;199;4;5;299;1370;4;149;129;385;611;17;6;196;872;4;108;121;467;443;17;7;115;492;4;145;480;9;8;105;488;4;144;488;9;9;12;215;4;17;575;5
24.01.19;13:45:00;1;500;6781;0;2;134;538;4;160;389;7;3;75;271;4;114;500;10;4;78;367;3;81;199;4;5;307;1345;4;152;129;385;611;17;6;202;856;4;95;103;466;442;17;7;106;483;4;145;485;9;8;98;479;4;139;493;9;9;20;213;3;28;556;5
24.01.19;13:40:00;1;503;6740;0;2;128;527;4;155;400;7;3;69;265;4;107;514;10;4;76;360;3;79;199;4;5;302;1319;4;152;127;385;611;17;6;196;839;4;70;77;466;443;17;7;95;474;4;141;485;9;8;107;471;4;139;480;8;9;23;211;6;32;545;5
24.01.19;13:35:00;1;478;6700;0;2;115;516;4;140;385;7;3;62;259;4;97;469;10;4;61;354;3;64;198;4;5;267;1294;4;128;117;385;611;17;6;177;823;4;86;96;466;442;17;7;77;466;4;120;471;9;8;91;462;4;124;431;8;9;9;210;6;12;576;6
24.01.19;13:30:00;1;303;6658;0;2;122;507;4;150;381;7;3;65;254;4;101;470;10;4;72;349;3;75;198;4;5;279;1272;4;135;121;385;611;17;6;181;808;4;87;98;466;443;17;7;106;459;4;132;439;9;8;95;454;4;124;383;8;9;19;209;6;27;535;6
24.01.19;13:25:00;1;545;6602;0;2;134;497;4;157;381;7;3;70;248;4;103;447;10;4;80;343;3;83;199;4;5;298;1249;4;151;126;385;611;17;6;200;793;4;114;122;466;443;17;7;119;450;4;146;439;9;8;111;446;4;134;371;8;9;10;208;6;13;580;6
24.01.19;13:20:00;1;566;6550;0;2;142;485;4;171;395;7;3;80;242;4;114;478;10;4;95;336;3;99;223;4;5;321;1224;4;164;135;385;611;17;6;207;776;4;78;84;466;442;17;7;118;441;4;161;429;9;8;122;437;4;156;415;8;9;0;207;6;0;608;6